Location: Oberwangen
(47.4286°N, 8.9679°E)
Time: 08:51:42
(UTC+00:00)

NOSS 8 (F) - Pass Details

Date: 20 June 2021
Orbit: 377 x 1789 km, 63.3° (Epoch: 04 August)

Event Time Altitude Azimuth Distance (km) Brightness Sun altitude
Exits shadow 23:42:42 75° 120° (ESE) 417 4.0 -19.0°
Drops below altitude 10° 23:45:37 10° 43° (NE) 1,399 7.6 -19.0°
Sets 23:47:34 0° 42° (NE) 2,258 8.8 -19.0°
